Simultaneous Nadir Overpasses (SNOs) Predictions

Prediction of SNOs between TERRA and METOP-C Satellite Orbit:

Table of predicted SNOs for the next 14.0 days since TLE Epoch: 8/14/2021
Index Date (TERRA) Time (TERRA) Lat,Lon (TERRA) SZA (TERRA ) Date (METOP-C) Time (METOP-C) Lat,Lon (METOP-C) SZA (METOP-C ) Distance(km) Time Diff (sec)
1 08/16/2021 01:03:31 81.28,-150.52 70.10 08/16/2021 01:02:34 81.29,-150.49 70.09 0.98 57
2 08/16/2021 01:52:57 -81.30, 17.39 109.85 08/16/2021 01:53:13 -81.29, 17.23 109.86 2.61 16
3 08/18/2021 20:37:42 81.28, -84.03 71.02 08/18/2021 20:36:53 81.29, -83.85 71.03 3.19 49
4 08/18/2021 21:27:08 -81.30, 83.90 108.93 08/18/2021 21:27:32 -81.30, 83.87 108.92 0.49 24
5 08/21/2021 16:11:54 81.28, -17.58 71.97 08/21/2021 16:11:14 81.29, -17.62 71.95 0.92 40
6 08/21/2021 17:01:20 -81.30, 150.39 107.98 08/21/2021 17:01:52 -81.30, 150.51 107.95 2.05 32
7 08/24/2021 11:46:06 81.28, 48.85 72.93 08/24/2021 11:45:34 81.29, 48.98 72.94 2.55 32
8 08/24/2021 12:35:32 -81.30,-143.17 107.01 08/24/2021 12:36:13 -81.30,-143.26 107.00 1.58 41
9 08/27/2021 07:20:16 81.30, 115.61 73.97 08/27/2021 07:19:53 81.30, 115.57 73.95 0.93 23



Historial Predications of SNOs between TERRA and METOP-C
